Regional Weather Roundup
Issued by NWS

Home | Current Version | Previous Version | Text Only | Print | Product List | Glossary On
Versions: 1 2 3 4 5 6 7 8 9 10 11 12 13 14 15 16 17 18 19 20 21 22 23 24 25 26 27 28 29 30 31 32 33 34 35 36 37 38 39 40 41 42 43 44 45 46 47 48 49 50
000
ASUS42 KKEY 252310
RWRKEY

FLORIDA REGIONAL WEATHER ROUNDUP FOR THE FLORIDA KEYS
NATIONAL WEATHER SERVICE KEY WEST FLORIDA
700 PM EDT WED MAY 25 2016

...SOUTH FLORIDA AND THE KEYS...

CITY           SKY/WX    TMP DP  RH WIND       PRES   REMARKS
FORT MYERS     SUNNY     85  63  47 E14G22    30.10S
SW REGIONAL AP SUNNY     85  62  46 E18G25    30.11S
NAPLES         SUNNY     85  65  51 E18       30.09R
MIAMI          MOSUNNY   81  64  56 NE14G21   30.12R
WEST KENDALL   SUNNY     81  65  58 E18       30.11S
HOMESTEAD      SUNNY     81  67  61 NE16      30.10F
MARATHON       SUNNY     84  67  56 NE16G22   30.07S
BOCA CHICA NAS MOSUNNY   84  69  60 E17       30.06F
KEY WEST INTL  SUNNY     84  70  62 E16G23    30.07S

...INTERNATIONAL WEATHER...

CITY           SKY/WX    TMP DP  RH WIND       PRES   REMARKS
NASSAU BAHAMAS PTSUNNY   79  68  69 NE16      30.10F
CANCUN MEXICO  MOSUNNY   86  77  74 NE9       29.99S HX  97
COZUMEL MEXICO MOSUNNY   84  77  79 E9        29.99R HX  94

ADJACENT COASTAL WATERS...

STATION/POSITION TIME  SKY/WX   TEMP    WIND        PRES    WAVE
                                AIR SEA DIR/SP/G            HT/PER
                 (UTC)          (F)     (DEG/KT/KT) (MB)    (FT/S)
PULASKI SHOAL LI 2300            81     110/ 14/ 15 1018.3F
SAND KEY         2250            82      90/ 20/ 23 1018.4F
SOMBRERO KEY     NOT AVBL
LONG KEY         2300            81 86   70/ 21/ 23 1018.7S
MOLASSES REEF    2300            80 83   60/ 21/ 23 1018.5F
FOWEY ROCKS      2300            80 84   60/ 18/ 19 1020.1F

$$



USA.gov is the U.S. government's official web portal to all federal, state and local government web resources and services.